[[{"header":{"parameterUnit":"m.s-1","parameterCategory":2,"la1":30.2991,"la2":30.254,"lo1":-89.0895,"lo2":-89.0444,"dy":0.0017,"dx":0.0017,"nx":28,"ny":28,"refTime":"2024-08-17T09:00:00:Z","depth":"0","parameterNumber":2,"parameterNumberName":"U-component_of_CURRENTS"},"data":[0,0,0,0,0,0,0,0,0,0,0,0,0,0,0,0,0,0,0,0,0,0,0,0,0,0,0,0,0,0,0,0,0,0,0,0,0,0,0,0,0,0,0,0,0,0,0,0,0,0,0,0,0,0,0,0,0,0,-0.2647,-0.2649,0,-0.2789,-0.2791,-0.2792,-0.2773,-0.2771,-0.2769,-0.2766,-0.279,-0.2792,-0.2795,0,0,0,0,0,0,0,0,0,0,0,0,0,-0.2359,-0.2364,-0.2647,-0.2649,-0.2651,-0.2789,-0.2791,-0.2792,-0.2773,-0.2771,-0.2768,-0.2765,-0.2789,-0.2792,-0.2795,0,0,0,0,0,0,0,0,0,0,0,0,0,-0.2489,-0.2366,-0.2647,-0.2659,-0.2662,-0.2788,-0.2791,-0.2793,-0.2774,-0.2771,-0.2767,-0.2764,-0.2788,-0.2792,-0.2796,-0.2887,0,0,-0.2808,-0.281,0,0,0,0,0,0,0,0,-0.2482,-0.25,-0.2655,-0.2658,-0.2662,-0.2761,-0.2698,-0.2819,-0.2775,-0.273,-0.2766,-0.2763,-0.2772,-0.2778,-0.2811,-0.2888,-0.2889,-0.2808,-0.2811,-0.2812,-0.2814,0,0,0,0,0,0,0,-0.2473,-0.2494,-0.2702,-0.2658,-0.2662,-0.2657,-0.2672,-0.2721,-0.2765,-0.2734,-0.2733,-0.2752,-0.2773,-0.2808,-0.2811,-0.2889,-0.2808,-0.2812,-0.2814,-0.2816,-0.2912,-0.2912,0,0,0,0,0,0,-0.2464,-0.2486,-0.2697,-0.2706,-0.2563,-0.2665,-0.2682,-0.2731,-0.2767,-0.2771,-0.2755,-0.2751,-0.2802,-0.2807,-0.2812,-0.2804,-0.2812,-0.2816,-0.2818,-0.2912,-0.2912,-0.2912,0,0,0,0,0,0,-0.2457,-0.2482,-0.2692,-0.2597,-0.2624,-0.2674,-0.273,-0.2736,-0.276,-0.2785,-0.2784,-0.277,-0.28,-0.2806,-0.2847,-0.2809,-0.2818,-0.2822,-0.2911,-0.2912,-0.2912,-0.2864,0,0,0,0,0,0,-0.2449,-0.248,-0.2494,-0.2599,-0.2629,-0.2749,-0.2733,-0.2741,-0.2778,-0.2773,-0.2799,-0.2798,-0.2798,-0.2841,-0.2851,-0.2814,-0.2825,-0.2911,-0.2912,-0.2912,-0.2865,-0.2862,-0.286,0,0,0,0,0,-0.2439,-0.2479,-0.2495,-0.2519,-0.2654,-0.275,-0.2765,-0.2787,-0.2782,-0.2795,-0.2815,-0.2796,-0.2847,-0.2847,-0.2858,-0.2821,-0.2911,-0.2911,-0.2912,-0.2866,-0.2863,-0.286,0,0,0,0,0,0,-0.2359,-0.2485,-0.2503,-0.2578,-0.2647,-0.2746,-0.2763,-0.2796,-0.2831,-0.2816,-0.2833,-0.2836,-0.2848,-0.2862,-0.2861,-0.2849,-0.2863,-0.2866,-0.2825,-0.2822,-0.2819,-0.2768,-0.2828,0,0,0,0,0,-0.2354,-0.2403,-0.2524,-0.2569,-0.2614,-0.2692,-0.2728,-0.2756,-0.2811,-0.2823,-0.2843,-0.2855,-0.2867,-0.2866,-0.2889,-0.2911,-0.2893,-0.2885,-0.2882,-0.288,-0.2846,-0.2811,-0.2801,-0.2913,-0.2913,-0.2913,0,0,-0.233,-0.2402,-0.2428,-0.2551,-0.2608,-0.2655,-0.2705,-0.2767,-0.2774,-0.2822,-0.283,-0.2863,-0.2878,-0.2882,-0.2884,-0.2881,-0.2843,-0.288,-0.2878,-0.2844,-0.281,-0.2799,-0.2788,-0.2913,-0.2913,-0.2913,0,0,-0.2305,-0.2384,-0.2416,-0.2478,-0.257,-0.2624,-0.2644,-0.275,-0.2762,-0.2818,-0.282,-0.2827,-0.2886,-0.2853,-0.2853,-0.2857,-0.2842,-0.287,-0.28,-0.2767,-0.2757,-0.2747,-0.2722,-0.271,-0.2853,-0.2853,-0.2853,0,-0.2265,-0.2338,-0.2434,-0.2476,-0.2516,-0.2606,-0.2642,-0.2677,-0.2766,-0.2778,-0.2802,-0.2843,-0.2853,-0.2815,-0.2802,-0.2841,-0.2837,-0.2809,-0.2759,-0.275,-0.274,-0.2717,-0.2705,-0.2851,-0.2851,-0.2851,-0.2851,0,-0.2271,-0.2318,-0.2346,-0.242,-0.247,-0.2525,-0.2599,-0.2631,-0.2676,-0.271,-0.2724,-0.2754,-0.2764,-0.2765,-0.2787,-0.2719,-0.2744,-0.2771,-0.2758,-0.2725,-0.2704,-0.2692,-0.2847,-0.2848,-0.2849,-0.285,0,0,-0.2226,-0.2331,-0.2336,-0.236,-0.2456,-0.2506,-0.2517,-0.2575,-0.2581,-0.2628,-0.263,-0.2629,-0.2654,-0.2652,-0.2668,-0.2625,-0.2564,-0.2665,-0.2665,-0.2623,-0.2501,-0.2434,-0.2415,-0.2593,-0.2591,-0.2589,-0.2517,0,-0.2203,-0.2258,-0.2317,-0.2344,-0.2391,-0.2462,-0.247,-0.2511,-0.2559,-0.2579,-0.2578,-0.2594,-0.2606,-0.2621,-0.2573,-0.259,-0.2529,-0.258,-0.2554,-0.2552,-0.248,-0.2396,-0.2275,-0.2193,-0.2505,-0.2503,-0.2502,0,-0.2196,-0.2238,-0.2273,-0.2335,-0.2364,-0.2374,-0.2425,-0.2447,-0.2475,-0.2515,-0.2508,-0.254,-0.2485,-0.2516,-0.2445,-0.249,-0.2469,-0.2465,-0.2463,-0.2396,-0.2459,-0.2276,-0.2159,-0.2146,-0.2483,-0.2484,-0.2486,0,-0.2138,-0.2208,-0.223,-0.2255,-0.2334,-0.2344,-0.2377,-0.2419,-0.2443,-0.2462,-0.2489,-0.2452,-0.2453,-0.2408,-0.2405,-0.243,-0.2341,-0.238,-0.228,-0.2278,-0.216,-0.215,-0.2,-0.2283,-0.2283,-0.2283,-0.2284,0,-0.2114,-0.2127,-0.2202,-0.2218,-0.2231,-0.2302,-0.2316,-0.2349,-0.2393,-0.2401,-0.2439,-0.243,-0.2429,-0.2402,-0.2378,-0.2285,-0.2312,-0.2223,-0.2231,-0.2144,-0.2133,-0.2107,-0.2159,-0.2281,-0.2281,-0.2282,-0.2282,0,-0.2042,-0.2098,-0.2124,-0.2193,-0.2206,-0.2213,-0.2277,-0.2291,-0.2347,-0.2358,-0.2363,-0.2403,-0.2352,-0.2339,-0.2283,-0.2246,-0.2129,-0.2134,-0.2035,-0.2029,-0.1899,-0.1955,-0.1828,-0.1777,-0.1984,-0.1981,-0.1979,0,-0.2009,-0.2018,-0.2078,-0.2084,-0.211,-0.2138,-0.2157,-0.224,-0.2263,-0.2326,-0.2318,-0.2304,-0.2251,-0.2154,-0.2075,-0.1976,-0.2013,-0.1838,-0.1826,-0.182,-0.189,-0.195,-0.1923,-0.1669,-0.1665,-0.1661,-0.1658,0,-0.1927,-0.1947,-0.1962,-0.1985,-0.2002,-0.2027,-0.2065,-0.2086,-0.2178,-0.2181,-0.2169,-0.2133,-0.2052,-0.1898,-0.181,-0.1744,-0.1787,-0.1757,-0.1764,-0.1608,-0.1649,-0.163,-0.182,-0.1626,-0.1629,-0.1631,-0.1633,-0.1634,-0.1836,-0.1825,-0.1847,-0.1848,-0.1875,-0.1887,-0.186,-0.1921,-0.192,-0.1893,-0.196,-0.1846,-0.1783,-0.161,-0.1559,-0.1431,-0.1519,-0.1375,-0.1439,-0.1497,-0.1435,-0.1547,-0.1363,-0.1364,-0.1366,-0.1367,-0.1368,0,-0.1709,-0.1705,-0.171,-0.1707,-0.1677,-0.174,-0.1763,-0.1707,-0.165,-0.1636,-0.1576,-0.1481,-0.136,-0.133,-0.1227,-0.1151,-0.1146,-0.1131,-0.1181,-0.1165,-0.1243,-0.1214,-0.0972,-0.0972,-0.0972,-0.0972,-0.0972,-0.0972,-0.1642,-0.1587,-0.159,-0.1488,-0.1487,-0.1399,-0.1378,-0.1318,-0.1269,-0.112,-0.1051,-0.1015,-0.1094,-0.1217,-0.1132,-0.106,-0.1064,-0.1008,-0.108,-0.1146,-0.1175,-0.1202,-0.1181,-0.0937,-0.0937,-0.0919,-0.0919,-0.092]},{"header":{"parameterUnit":"m.s-1","parameterCategory":2,"la1":30.2991,"la2":30.254,"lo1":-89.0895,"lo2":-89.0444,"dy":0.0017,"dx":0.0017,"nx":28,"ny":28,"refTime":"2024-08-17T09:00:00:Z","depth":"0","parameterNumber":3,"parameterNumberName":"V-component_of_CURRENTS"},"data":[0,0,0,0,0,0,0,0,0,0,0,0,0,0,0,0,0,0,0,0,0,0,0,0,0,0,0,0,0,0,0,0,0,0,0,0,0,0,0,0,0,0,0,0,0,0,0,0,0,0,0,0,0,0,0,0,0,0,0.0114,0.0116,0,0.0361,0.0364,0.0367,0.0523,0.0523,0.0524,0.0524,0.081,0.0816,0.0823,0,0,0,0,0,0,0,0,0,0,0,0,0,-0.01,-0.0098,0.0114,0.0117,0.0119,0.036,0.0364,0.0368,0.0523,0.0523,0.0524,0.0525,0.0807,0.0816,0.0824,0,0,0,0,0,0,0,0,0,0,0,0,0,0.0058,-0.0097,0.0113,0.0223,0.0235,0.036,0.0364,0.0369,0.0523,0.0523,0.0524,0.0525,0.0804,0.0815,0.0825,0.0875,0,0,0.0858,0.0862,0,0,0,0,0,0,0,0,0.0048,0.0066,0.0204,0.0215,0.0229,0.0408,0.0393,0.0539,0.0522,0.0417,0.0524,0.0525,0.0676,0.0697,0.0747,0.0889,0.0901,0.0859,0.0865,0.087,0.0873,0,0,0,0,0,0,0,0.0037,0.0057,0.0216,0.0207,0.0222,0.0301,0.0324,0.0422,0.0543,0.0427,0.0438,0.0458,0.0684,0.0736,0.0755,0.0905,0.0858,0.0868,0.0875,0.0879,0.1016,0.1014,0,0,0,0,0,0,-0.0008,0.0046,0.0208,0.0223,0.0134,0.0304,0.0329,0.0353,0.0542,0.057,0.0458,0.0465,0.0718,0.0742,0.0765,0.0778,0.087,0.088,0.0886,0.1019,0.1016,0.1013,0,0,0,0,0,0,-0.0014,0.0004,0.0198,0.0137,0.0166,0.0305,0.0332,0.0358,0.0406,0.0564,0.0594,0.0478,0.0719,0.075,0.0845,0.0793,0.0885,0.0894,0.1022,0.1018,0.1014,0.0841,0,0,0,0,0,0,-0.0021,0.0,-0.0007,0.0133,0.0168,0.0253,0.0332,0.0362,0.0416,0.0428,0.0591,0.0619,0.0722,0.0828,0.0855,0.0809,0.0903,0.1026,0.102,0.1016,0.085,0.0832,0.0816,0,0,0,0,0,-0.0029,-0.0043,-0.0008,0.0011,0.0157,0.0251,0.0276,0.0381,0.0415,0.0429,0.054,0.0613,0.0813,0.0836,0.0869,0.0824,0.1028,0.1022,0.1016,0.0858,0.0835,0.0816,0,0,0,0,0,0,-0.0128,-0.0024,0.0016,0.0038,0.0126,0.0276,0.0295,0.0363,0.0463,0.047,0.0617,0.0653,0.0703,0.0785,0.0807,0.084,0.0917,0.0917,0.0785,0.0766,0.0748,0.071,0.0911,0,0,0,0,0,-0.016,-0.0151,-0.0027,-0.0014,0.0024,0.0152,0.0199,0.0269,0.0378,0.0423,0.0535,0.0632,0.0702,0.0753,0.0836,0.0881,0.0939,0.0857,0.084,0.0825,0.081,0.0847,0.0832,0.0993,0.0993,0.0993,0,0,-0.0196,-0.014,-0.0133,-0.0037,0.0041,0.0078,0.0184,0.0242,0.0266,0.0437,0.0497,0.0586,0.07,0.0742,0.0767,0.0808,0.0806,0.0817,0.0804,0.0797,0.0839,0.0824,0.081,0.0988,0.0989,0.099,0,0,-0.0258,-0.0213,-0.0218,-0.0161,-0.0068,0.0009,0.0013,0.0149,0.02,0.0278,0.0376,0.0433,0.0574,0.063,0.0677,0.0611,0.0712,0.0621,0.0516,0.0551,0.0538,0.0528,0.0572,0.0567,0.0614,0.0614,0.0613,0,-0.0304,-0.0285,-0.0205,-0.0191,-0.0155,-0.0037,-0.0025,0.0036,0.018,0.0215,0.0267,0.0421,0.0512,0.0545,0.0513,0.0571,0.0616,0.0591,0.0529,0.052,0.0512,0.056,0.0557,0.0605,0.0606,0.0607,0.0607,0,-0.0354,-0.0343,-0.0343,-0.0294,-0.0253,-0.0225,-0.0133,-0.0095,-0.0023,0.0055,0.0114,0.0238,0.0332,0.034,0.0417,0.0389,0.0446,0.0502,0.0582,0.0486,0.0543,0.0542,0.0592,0.0595,0.0598,0.06,0,0,-0.0428,-0.0386,-0.0385,-0.0378,-0.0303,-0.0267,-0.0258,-0.0189,-0.0173,-0.0077,-0.0043,0.0036,0.0108,0.0161,0.0245,0.026,0.024,0.0343,0.0349,0.0387,0.0323,0.0389,0.0396,0.029,0.0289,0.0288,0.0381,0,-0.0478,-0.0492,-0.0451,-0.0464,-0.0453,-0.0375,-0.0367,-0.0308,-0.0233,-0.0177,-0.0093,-0.0024,0.0037,0.0084,0.0099,0.0228,0.0232,0.021,0.0411,0.0416,0.0487,0.0395,0.044,0.0529,0.0382,0.0382,0.0382,0,-0.0523,-0.0526,-0.0549,-0.053,-0.0518,-0.0517,-0.0474,-0.0449,-0.037,-0.0309,-0.0251,-0.015,-0.0103,-0.0038,0.0082,0.0071,0.0161,0.0242,0.0249,0.0371,0.0481,0.0604,0.0536,0.0679,0.0384,0.0383,0.0383,0,-0.0592,-0.0589,-0.0613,-0.0606,-0.0572,-0.0574,-0.0554,-0.049,-0.0464,-0.039,-0.0352,-0.0264,-0.019,-0.0096,0.008,0.0083,0.0224,0.0267,0.0397,0.0405,0.0513,0.0531,0.0609,0.0309,0.0309,0.0309,0.0308,0,-0.0647,-0.0665,-0.0651,-0.0663,-0.0693,-0.0643,-0.0653,-0.0616,-0.0557,-0.0524,-0.0426,-0.0367,-0.0203,-0.0079,0.0048,0.0233,0.0206,0.0357,0.0421,0.0453,0.0464,0.0653,0.0719,0.0312,0.0311,0.0311,0.031,0,-0.0708,-0.0698,-0.0727,-0.0721,-0.0724,-0.0744,-0.0724,-0.0722,-0.066,-0.0614,-0.0591,-0.0437,-0.026,-0.0091,0.0108,0.0217,0.0474,0.0442,0.0472,0.0537,0.0778,0.0831,0.0978,0.106,0.0586,0.0588,0.059,0,-0.0736,-0.0758,-0.0783,-0.0809,-0.0809,-0.0828,-0.0837,-0.0784,-0.0766,-0.0639,-0.0615,-0.0438,-0.0276,0.0033,0.0258,0.0486,0.0581,0.0641,0.0635,0.0774,0.0883,0.091,0.097,0.0713,0.0715,0.0717,0.0719,0,-0.0789,-0.0798,-0.0822,-0.0885,-0.0912,-0.0935,-0.0934,-0.0925,-0.0835,-0.0754,-0.0593,-0.0451,-0.014,0.0173,0.0456,0.0583,0.0756,0.0691,0.0829,0.0965,0.1008,0.1126,0.0676,0.0737,0.0736,0.0734,0.0733,0.0733,-0.082,-0.0859,-0.0896,-0.0951,-0.0989,-0.101,-0.0996,-0.0922,-0.0842,-0.0604,-0.0549,-0.022,0.0104,0.0532,0.0684,0.0997,0.0938,0.1074,0.1122,0.1132,0.1217,0.0802,0.0942,0.0942,0.0941,0.0941,0.094,0,-0.085,-0.0894,-0.0958,-0.1014,-0.1059,-0.1062,-0.1031,-0.0928,-0.0753,-0.0463,-0.024,0.0201,0.0561,0.088,0.125,0.1415,0.1444,0.1484,0.1529,0.1566,0.1204,0.1215,0.1428,0.1428,0.1428,0.1428,0.1427,0.1427,-0.0867,-0.093,-0.0968,-0.1048,-0.1086,-0.1082,-0.1039,-0.0792,-0.0543,-0.004,0.034,0.0573,0.0899,0.141,0.1767,0.1795,0.1946,0.1926,0.2001,0.1754,0.1719,0.1686,0.1711,0.2025,0.2025,0.2348,0.2352,0.2354]}],[{"header":{"parameterUnit":"m.s-1","parameterCategory":2,"la1":30.2991,"la2":30.254,"lo1":-89.0895,"lo2":-89.0444,"dy":0.0017,"dx":0.0017,"nx":28,"ny":28,"refTime":"2024-08-17T09:00:00:Z","depth":"2","parameterNumber":2,"parameterNumberName":"U-component_of_CURRENTS"},"data":[0,0,0,0,0,0,0,0,0,0,0,0,0,0,0,0,0,0,0,0,0,0,0,0,0,0,0,0,0,0,0,0,0,0,0,0,0,0,0,0,0,0,0,0,0,0,0,0,0,0,0,0,0,0,0,0,0,0,-0.2185,-0.2186,0,-0.2269,-0.227,-0.2271,-0.228,-0.228,-0.2279,-0.2278,-0.2285,-0.2286,-0.2287,0,0,0,0,0,0,0,0,0,0,0,0,0,-0.2077,-0.2079,-0.2185,-0.2186,-0.2187,-0.2269,-0.227,-0.2271,-0.2281,-0.228,-0.2279,-0.2278,-0.2285,-0.2286,-0.2287,0,0,0,0,0,0,0,0,0,0,0,0,0,-0.2138,-0.2079,-0.2185,-0.2202,-0.2205,-0.2269,-0.227,-0.2271,-0.2281,-0.228,-0.2278,-0.2277,-0.2284,-0.2286,-0.2287,-0.2318,0,0,-0.2291,-0.2292,0,0,0,0,0,0,0,0,-0.2135,-0.2142,-0.2199,-0.2201,-0.2204,-0.2264,-0.2235,-0.2284,-0.2281,-0.2251,-0.2278,-0.2277,-0.2272,-0.2274,-0.2293,-0.2319,-0.2319,-0.2291,-0.2292,-0.2293,-0.2293,0,0,0,0,0,0,0,-0.213,-0.2139,-0.2217,-0.22,-0.2203,-0.2221,-0.2228,-0.2244,-0.2265,-0.2254,-0.2255,-0.2266,-0.2273,-0.2292,-0.2293,-0.2319,-0.2291,-0.2292,-0.2293,-0.2294,-0.2457,-0.2461,0,0,0,0,0,0,-0.2121,-0.2135,-0.2215,-0.222,-0.2167,-0.2224,-0.2232,-0.2245,-0.2267,-0.227,-0.2267,-0.2266,-0.229,-0.2291,-0.2293,-0.2326,-0.2293,-0.2294,-0.2295,-0.2454,-0.2458,-0.2462,0,0,0,0,0,0,-0.2118,-0.2127,-0.2211,-0.218,-0.2192,-0.2227,-0.2242,-0.2247,-0.2265,-0.2277,-0.2278,-0.2279,-0.2289,-0.2291,-0.2314,-0.2326,-0.2294,-0.2296,-0.245,-0.2455,-0.246,-0.2395,0,0,0,0,0,0,-0.2115,-0.2126,-0.2138,-0.2179,-0.2193,-0.2238,-0.2244,-0.225,-0.2274,-0.2274,-0.2288,-0.2288,-0.2288,-0.2312,-0.2315,-0.2327,-0.2297,-0.2445,-0.2452,-0.2458,-0.2393,-0.2398,-0.2402,0,0,0,0,0,-0.2111,-0.2138,-0.2138,-0.2148,-0.2207,-0.2238,-0.2246,-0.2267,-0.2276,-0.228,-0.2301,-0.2287,-0.2358,-0.2314,-0.2318,-0.2331,-0.2442,-0.245,-0.2458,-0.2391,-0.2397,-0.2402,0,0,0,0,0,0,-0.2097,-0.2143,-0.2144,-0.2182,-0.2199,-0.2239,-0.2261,-0.2272,-0.2296,-0.2305,-0.2307,-0.2309,-0.2342,-0.2366,-0.2318,-0.2413,-0.2409,-0.2418,-0.2358,-0.2363,-0.2368,-0.2325,-0.2298,0,0,0,0,0,-0.2099,-0.2125,-0.2159,-0.2182,-0.22,-0.2229,-0.2249,-0.2263,-0.229,-0.23,-0.2312,-0.2351,-0.2384,-0.2391,-0.2428,-0.2458,-0.2439,-0.2487,-0.2492,-0.2494,-0.2473,-0.2449,-0.2446,-0.2488,-0.2488,-0.2488,0,0,-0.2096,-0.2126,-0.2139,-0.218,-0.2204,-0.2231,-0.2238,-0.2274,-0.2291,-0.2298,-0.2331,-0.2359,-0.2401,-0.2439,-0.2459,-0.2449,-0.2482,-0.2505,-0.2505,-0.2481,-0.2457,-0.2451,-0.2446,-0.2494,-0.2493,-0.2492,0,0,-0.2102,-0.2134,-0.2156,-0.2178,-0.2217,-0.224,-0.2248,-0.2292,-0.2306,-0.234,-0.2363,-0.2381,-0.2445,-0.2455,-0.2474,-0.2532,-0.2509,-0.2583,-0.2549,-0.2526,-0.252,-0.2513,-0.249,-0.2482,-0.2578,-0.2578,-0.2577,0,-0.2094,-0.2129,-0.2163,-0.2191,-0.2212,-0.2242,-0.2265,-0.2292,-0.2332,-0.2341,-0.2349,-0.2426,-0.2444,-0.2469,-0.2493,-0.2528,-0.252,-0.2504,-0.252,-0.2514,-0.2508,-0.2486,-0.2477,-0.2575,-0.2576,-0.2576,-0.2576,0,-0.2114,-0.2143,-0.2163,-0.2204,-0.2229,-0.2258,-0.2295,-0.232,-0.2346,-0.2362,-0.2394,-0.2417,-0.2451,-0.248,-0.2493,-0.2493,-0.2502,-0.2519,-0.2475,-0.2498,-0.2476,-0.2468,-0.2572,-0.2573,-0.2574,-0.2574,0,0,-0.2082,-0.216,-0.2162,-0.2181,-0.2242,-0.2261,-0.23,-0.2329,-0.2346,-0.2374,-0.2381,-0.2422,-0.2423,-0.2449,-0.2471,-0.2445,-0.2395,-0.2463,-0.2463,-0.2384,-0.2344,-0.2273,-0.2258,-0.2408,-0.2407,-0.2406,-0.2343,0,-0.2078,-0.2125,-0.2168,-0.2203,-0.2232,-0.2276,-0.2304,-0.2335,-0.2363,-0.2381,-0.2387,-0.2413,-0.2419,-0.2432,-0.2404,-0.2417,-0.2374,-0.2411,-0.2384,-0.2382,-0.2268,-0.2246,-0.2088,-0.2011,-0.2335,-0.2334,-0.2333,0,-0.2073,-0.211,-0.2146,-0.2205,-0.2221,-0.2244,-0.2288,-0.2318,-0.2351,-0.2372,-0.2378,-0.2397,-0.2381,-0.2383,-0.2341,-0.237,-0.2342,-0.233,-0.2328,-0.2268,-0.2295,-0.2049,-0.1985,-0.232,-0.2321,-0.2322,-0.2323,0,-0.2022,-0.2087,-0.2113,-0.2135,-0.221,-0.2226,-0.2259,-0.2305,-0.2329,-0.2357,-0.2373,-0.2366,-0.2367,-0.233,-0.2314,-0.2328,-0.2258,-0.2279,-0.2177,-0.2173,-0.2033,-0.2019,-0.221,-0.221,-0.221,-0.221,-0.221,0,-0.2,-0.2015,-0.209,-0.2105,-0.2128,-0.2193,-0.2216,-0.2251,-0.23,-0.2312,-0.2353,-0.2349,-0.2352,-0.2328,-0.2298,-0.2209,-0.2242,-0.2142,-0.2138,-0.2014,-0.1999,-0.2274,-0.2282,-0.2208,-0.2208,-0.2209,-0.2209,0,-0.1932,-0.1987,-0.2016,-0.2088,-0.2105,-0.2116,-0.2185,-0.2204,-0.2263,-0.228,-0.2288,-0.233,-0.2282,-0.2272,-0.2218,-0.2181,-0.2115,-0.2072,-0.1927,-0.1905,-0.2047,-0.2054,-0.1935,-0.1932,-0.1929,-0.1926,-0.1924,0,-0.1901,-0.1913,-0.1978,-0.1988,-0.2017,-0.2053,-0.2077,-0.2161,-0.2186,-0.2251,-0.2245,-0.2235,-0.2182,-0.2093,-0.2013,-0.1918,-0.201,-0.1747,-0.1727,-0.2003,-0.2012,-0.2024,-0.2034,-0.153,-0.1524,-0.152,-0.1517,0,-0.1827,-0.185,-0.1869,-0.1899,-0.1924,-0.1955,-0.1998,-0.202,-0.2109,-0.2119,-0.2108,-0.2072,-0.1987,-0.1814,-0.1726,-0.1659,-0.1752,-0.1658,-0.1963,-0.1631,-0.1617,-0.1628,-0.1652,-0.148,-0.1484,-0.1486,-0.1488,-0.149,-0.1746,-0.1741,-0.1768,-0.1778,-0.1812,-0.1828,-0.1802,-0.1865,-0.187,-0.1855,-0.1912,-0.1794,-0.1762,-0.1506,-0.1418,-0.1353,-0.1468,-0.1421,-0.1435,-0.1453,-0.1424,-0.1407,-0.1225,-0.1227,-0.1229,-0.123,-0.1232,0,-0.1634,-0.1636,-0.1646,-0.1651,-0.1629,-0.1691,-0.1715,-0.166,-0.1609,-0.1635,-0.1582,-0.1371,-0.1247,-0.1218,-0.1047,-0.1019,-0.1021,-0.0988,-0.0998,-0.1034,-0.1067,-0.1021,-0.0713,-0.0711,-0.071,-0.0709,0,0,-0.1574,-0.1531,-0.1535,-0.1449,-0.1451,-0.1364,-0.134,-0.1285,-0.1263,-0.1185,-0.1123,-0.1183,-0.1178,-0.0952,-0.0894,-0.0778,-0.0901,-0.0733,-0.1146,-0.1193,-0.1224,-0.1306,-0.1274,0,0,0,0,0]},{"header":{"parameterUnit":"m.s-1","parameterCategory":2,"la1":30.2991,"la2":30.254,"lo1":-89.0895,"lo2":-89.0444,"dy":0.0017,"dx":0.0017,"nx":28,"ny":28,"refTime":"2024-08-17T09:00:00:Z","depth":"2","parameterNumber":3,"parameterNumberName":"V-component_of_CURRENTS"},"data":[0,0,0,0,0,0,0,0,0,0,0,0,0,0,0,0,0,0,0,0,0,0,0,0,0,0,0,0,0,0,0,0,0,0,0,0,0,0,0,0,0,0,0,0,0,0,0,0,0,0,0,0,0,0,0,0,0,0,-0.0295,-0.0294,0,-0.0227,-0.0226,-0.0225,-0.0158,-0.0157,-0.0157,-0.0156,-0.0103,-0.0102,-0.0101,0,0,0,0,0,0,0,0,0,0,0,0,0,-0.0318,-0.0318,-0.0295,-0.0294,-0.0294,-0.0227,-0.0226,-0.0225,-0.0158,-0.0157,-0.0157,-0.0156,-0.0103,-0.0102,-0.0101,0,0,0,0,0,0,0,0,0,0,0,0,0,-0.0283,-0.0318,-0.0295,-0.0255,-0.025,-0.0228,-0.0226,-0.0225,-0.0158,-0.0157,-0.0156,-0.0156,-0.0103,-0.0102,-0.0101,-0.0111,0,0,-0.0097,-0.0096,0,0,0,0,0,0,0,0,-0.0285,-0.0281,-0.0261,-0.0257,-0.0253,-0.0203,-0.0215,-0.0188,-0.0159,-0.019,-0.0156,-0.0155,-0.014,-0.0136,-0.0121,-0.0109,-0.0107,-0.0097,-0.0096,-0.0095,-0.0095,0,0,0,0,0,0,0,-0.0287,-0.0284,-0.0265,-0.0261,-0.0256,-0.0224,-0.0218,-0.0209,-0.0169,-0.0187,-0.0183,-0.0181,-0.0137,-0.0122,-0.0119,-0.0106,-0.0097,-0.0096,-0.0095,-0.0094,-0.0003,-0.0001,0,0,0,0,0,0,-0.0305,-0.0286,-0.0267,-0.0263,-0.027,-0.0225,-0.0218,-0.0217,-0.0169,-0.0161,-0.0182,-0.0178,-0.0125,-0.0121,-0.0117,-0.0093,-0.0096,-0.0094,-0.0094,-0.0004,-0.0002,-0.0,0,0,0,0,0,0,-0.0306,-0.0304,-0.027,-0.0275,-0.0269,-0.0226,-0.0225,-0.0217,-0.0199,-0.0165,-0.0156,-0.0173,-0.0124,-0.0119,-0.0119,-0.0092,-0.0094,-0.0093,-0.0006,-0.0004,-0.0001,-0.0068,0,0,0,0,0,0,-0.0307,-0.0305,-0.0308,-0.0277,-0.027,-0.0267,-0.0226,-0.0216,-0.02,-0.0194,-0.0155,-0.0149,-0.0123,-0.0121,-0.0118,-0.0091,-0.0092,-0.0008,-0.0005,-0.0002,-0.0068,-0.0068,-0.0069,0,0,0,0,0,-0.0308,-0.0319,-0.0309,-0.0306,-0.0276,-0.0268,-0.0262,-0.0225,-0.0201,-0.0203,-0.0178,-0.015,-0.0096,-0.0121,-0.0117,-0.0088,-0.001,-0.0006,-0.0002,-0.0068,-0.0068,-0.0069,0,0,0,0,0,0,-0.0334,-0.0313,-0.0301,-0.0305,-0.0294,-0.0258,-0.0254,-0.0231,-0.0211,-0.0202,-0.0166,-0.0159,-0.0134,-0.0105,-0.0133,-0.0043,-0.0033,-0.0028,-0.0084,-0.0084,-0.0084,-0.01,-0.009,0,0,0,0,0,-0.0344,-0.0348,-0.0324,-0.0333,-0.0325,-0.0291,-0.0281,-0.0259,-0.0238,-0.0226,-0.0198,-0.0153,-0.0113,-0.0101,-0.0064,-0.0049,-0.0019,-0.0011,-0.0011,-0.0012,-0.0016,0.0033,0.0035,0.0012,0.0012,0.0012,0,0,-0.0363,-0.0349,-0.0354,-0.0339,-0.0321,-0.0314,-0.0282,-0.0273,-0.026,-0.0227,-0.0203,-0.0165,-0.0109,-0.0077,-0.0059,-0.0055,0.0015,-0.0007,-0.0009,-0.0013,0.0037,0.0039,0.004,0.0015,0.0014,0.0014,0,0,-0.0399,-0.0385,-0.0395,-0.0382,-0.0362,-0.0339,-0.034,-0.0306,-0.0282,-0.0273,-0.0219,-0.0181,-0.0137,-0.0083,-0.0051,-0.0033,0.0011,0.0004,-0.0019,0.0029,0.003,0.0031,0.0074,0.0079,0.0004,0.0004,0.0004,0,-0.0421,-0.0426,-0.04,-0.0398,-0.0391,-0.0353,-0.0357,-0.0328,-0.0298,-0.0281,-0.0273,-0.0175,-0.0135,-0.0073,-0.0056,-0.0035,-0.0006,-0.0034,0.0024,0.0026,0.0028,0.0072,0.0079,0.0001,0.0001,0.0001,0.0002,0,-0.0457,-0.0456,-0.0462,-0.0444,-0.0433,-0.0436,-0.0394,-0.0376,-0.0346,-0.0312,-0.0259,-0.0207,-0.0147,-0.0108,-0.0085,-0.0023,-0.0007,0.001,0.0009,0.0026,0.0072,0.008,-0.0003,-0.0002,-0.0001,-0.0001,0,0,-0.052,-0.0494,-0.0496,-0.0493,-0.0456,-0.0455,-0.0429,-0.0397,-0.0378,-0.0332,-0.0302,-0.0221,-0.0184,-0.0143,-0.0087,-0.0044,-0.0,-0.0016,-0.0012,-0.0001,0.01,0.0132,0.0145,0.0019,0.002,0.0021,0.0124,0,-0.0558,-0.0573,-0.0542,-0.0551,-0.0554,-0.0505,-0.0486,-0.0447,-0.0406,-0.0366,-0.0288,-0.0238,-0.0196,-0.0168,-0.0117,-0.0025,0.002,-0.003,0.0107,0.0111,0.0115,0.0155,0.0143,0.0236,0.0132,0.0133,0.0134,0,-0.06,-0.0603,-0.0622,-0.0601,-0.0597,-0.0593,-0.0557,-0.0534,-0.0457,-0.0424,-0.0358,-0.0294,-0.0205,-0.0181,-0.0034,-0.007,0.0007,0.0072,0.0078,0.0135,0.0159,0.0207,0.0255,0.0149,0.0148,0.0147,0.0146,0,-0.0661,-0.0656,-0.0676,-0.067,-0.064,-0.0637,-0.0619,-0.0557,-0.0535,-0.0457,-0.0433,-0.0322,-0.0262,-0.0156,-0.0016,-0.0026,0.0139,0.0145,0.0248,0.0251,0.0283,0.0287,0.0241,0.0241,0.024,0.024,0.024,0,-0.071,-0.0724,-0.0709,-0.0721,-0.0743,-0.0696,-0.0698,-0.0662,-0.06,-0.0566,-0.0469,-0.0411,-0.0255,-0.0136,-0.0023,0.0145,0.0139,0.0253,0.0285,0.0263,0.0263,0.0221,0.0217,0.0244,0.0243,0.0242,0.0242,0,-0.0766,-0.0757,-0.078,-0.077,-0.0772,-0.0788,-0.0763,-0.0756,-0.0691,-0.0643,-0.0619,-0.0469,-0.0305,-0.0147,0.0046,0.0143,0.0292,0.035,0.0313,0.0339,0.0371,0.0363,0.0474,0.0476,0.0478,0.048,0.0481,0,-0.0794,-0.0813,-0.0831,-0.0854,-0.0854,-0.0866,-0.0872,-0.0815,-0.0793,-0.0668,-0.0643,-0.0474,-0.033,-0.004,0.0161,0.0372,0.0356,0.0468,0.0451,0.0378,0.0398,0.0387,0.0377,0.0471,0.0472,0.0473,0.0474,0,-0.0845,-0.0852,-0.0871,-0.0927,-0.095,-0.0966,-0.0961,-0.0951,-0.0861,-0.0787,-0.064,-0.0512,-0.0222,0.0037,0.0295,0.0406,0.0431,0.0493,0.0444,0.0408,0.0382,0.0399,0.0388,0.0481,0.048,0.048,0.048,0.0479,-0.0877,-0.0911,-0.0943,-0.0992,-0.1025,-0.1043,-0.1044,-0.0998,-0.0932,-0.0789,-0.0645,-0.0422,-0.0181,0.021,0.0397,0.0548,0.0534,0.0568,0.0563,0.0557,0.0533,0.0511,0.0629,0.0629,0.063,0.063,0.063,0,-0.0911,-0.095,-0.1006,-0.1058,-0.1102,-0.1099,-0.1085,-0.1057,-0.0961,-0.0792,-0.0611,-0.0301,0.0003,0.0226,0.0493,0.0653,0.0623,0.0658,0.0598,0.059,0.0583,0.0557,0.0662,0.0663,0.0663,0.0663,0,0,-0.0932,-0.099,-0.1021,-0.1104,-0.1141,-0.1161,-0.1142,-0.1076,-0.0961,-0.077,-0.0573,-0.0309,-0.0006,0.0198,0.0404,0.0537,0.0504,0.0534,0.0491,0.0386,0.0376,0.0518,0.0468,0,0,0,0,0]}],[{"header":{"parameterUnit":"m.s-1","parameterCategory":2,"la1":30.2991,"la2":30.254,"lo1":-89.0895,"lo2":-89.0444,"dy":0.0017,"dx":0.0017,"nx":28,"ny":28,"refTime":"2024-08-17T09:00:00:Z","depth":"4","parameterNumber":2,"parameterNumberName":"U-component_of_CURRENTS"},"data":[0,0,0,0,0,0,0,0,0,0,0,0,0,0,0,0,0,0,0,0,0,0,0,0,0,0,0,0,0,0,0,0,0,0,0,0,0,0,0,0,0,0,0,0,0,0,0,0,0,0,0,0,0,0,0,0,0,0,-0.1451,-0.1451,0,-0.1488,-0.1489,-0.1489,-0.1495,-0.1495,-0.1495,-0.1495,-0.1569,-0.1571,-0.1573,0,0,0,0,0,0,0,0,0,0,0,0,0,-0.1424,-0.1424,-0.145,-0.1451,-0.1452,-0.1488,-0.1489,-0.1489,-0.1495,-0.1495,-0.1495,-0.1495,-0.1568,-0.1571,-0.1573,0,0,0,0,0,0,0,0,0,0,0,0,0,-0.1445,-0.1424,-0.145,-0.146,-0.1461,-0.1488,-0.1489,-0.1489,-0.1496,-0.1495,-0.1495,-0.1494,-0.1567,-0.1571,-0.1574,-0.1602,0,0,-0.1584,-0.1585,0,0,0,0,0,0,0,0,-0.1444,-0.1446,-0.1458,-0.1459,-0.1461,-0.1487,-0.1506,-0.1529,-0.1496,-0.1482,-0.1495,-0.1494,-0.1546,-0.1551,-0.1557,-0.1605,-0.1609,-0.1584,-0.1586,-0.1588,-0.1589,0,0,0,0,0,0,0,-0.1442,-0.1445,-0.1465,-0.1458,-0.146,-0.1476,-0.1478,-0.1511,-0.1516,-0.1483,-0.1484,-0.1489,-0.1547,-0.1554,-0.1559,-0.161,-0.1584,-0.1587,-0.1589,-0.159,-0.1743,-0.1745,0,0,0,0,0,0,-0.1437,-0.1443,-0.1464,-0.1466,-0.1452,-0.1476,-0.1479,-0.1479,-0.1514,-0.1519,-0.1489,-0.1489,-0.1548,-0.1555,-0.1562,-0.1638,-0.1588,-0.1591,-0.1593,-0.1741,-0.1744,-0.1746,0,0,0,0,0,0,-0.1437,-0.1439,-0.1462,-0.1456,-0.146,-0.1477,-0.1477,-0.148,-0.1506,-0.1519,-0.1524,-0.1515,-0.1548,-0.1557,-0.1621,-0.1639,-0.1592,-0.1595,-0.1739,-0.1742,-0.1745,-0.1764,0,0,0,0,0,0,-0.1436,-0.1438,-0.1457,-0.1456,-0.1461,-0.1492,-0.1477,-0.1481,-0.1509,-0.151,-0.1543,-0.1548,-0.1549,-0.1616,-0.1624,-0.1643,-0.1598,-0.1736,-0.174,-0.1744,-0.1761,-0.1768,-0.1773,0,0,0,0,0,-0.1434,-0.1457,-0.1457,-0.1461,-0.1479,-0.1493,-0.1498,-0.1508,-0.1511,-0.153,-0.1562,-0.1548,-0.1646,-0.1621,-0.163,-0.165,-0.1734,-0.1739,-0.1744,-0.1758,-0.1766,-0.1773,0,0,0,0,0,0,-0.1454,-0.146,-0.146,-0.1483,-0.1494,-0.1495,-0.1522,-0.1524,-0.1563,-0.1574,-0.1582,-0.1591,-0.1642,-0.1659,-0.1632,-0.1708,-0.1685,-0.1692,-0.1694,-0.1702,-0.1708,-0.1717,-0.1601,0,0,0,0,0,-0.1467,-0.1489,-0.1487,-0.1511,-0.1518,-0.1525,-0.154,-0.1543,-0.1567,-0.1583,-0.1612,-0.1645,-0.1667,-0.1696,-0.1718,-0.1777,-0.1765,-0.1796,-0.1802,-0.1807,-0.1824,-0.182,-0.1826,-0.1761,-0.1761,-0.1761,0,0,-0.1483,-0.149,-0.1504,-0.1519,-0.153,-0.1553,-0.1534,-0.1562,-0.1591,-0.1588,-0.1659,-0.1667,-0.1686,-0.1735,-0.1761,-0.1755,-0.1818,-0.1813,-0.1816,-0.1831,-0.1825,-0.1831,-0.1836,-0.1764,-0.1764,-0.1763,0,0,-0.1514,-0.1529,-0.1552,-0.1567,-0.1588,-0.1594,-0.1607,-0.1626,-0.1646,-0.1704,-0.17,-0.1735,-0.1789,-0.1801,-0.1811,-0.1877,-0.1841,-0.1879,-0.1929,-0.1925,-0.1929,-0.1933,-0.191,-0.1912,-0.1893,-0.1893,-0.1893,0,-0.1531,-0.1554,-0.1564,-0.1588,-0.1608,-0.1616,-0.1641,-0.1669,-0.1712,-0.1734,-0.1736,-0.1801,-0.1819,-0.1858,-0.188,-0.1888,-0.1871,-0.189,-0.1929,-0.1933,-0.1936,-0.1913,-0.1914,-0.1894,-0.1894,-0.1894,-0.1894,0,-0.1563,-0.1596,-0.1614,-0.1647,-0.1675,-0.17,-0.1726,-0.1768,-0.1794,-0.181,-0.186,-0.1883,-0.1918,-0.1924,-0.1927,-0.1962,-0.1935,-0.1921,-0.19,-0.1943,-0.1916,-0.1917,-0.1897,-0.1896,-0.1896,-0.1895,0,0,-0.1545,-0.162,-0.1626,-0.1653,-0.1705,-0.1721,-0.1788,-0.1828,-0.1862,-0.1909,-0.1944,-0.1991,-0.199,-0.2005,-0.2002,-0.2014,-0.202,-0.1989,-0.1988,-0.1949,-0.1992,-0.1853,-0.184,-0.2001,-0.2002,-0.2002,-0.1956,0,-0.1559,-0.1614,-0.1653,-0.1715,-0.174,-0.1784,-0.1839,-0.1886,-0.1923,-0.1968,-0.1988,-0.202,-0.2022,-0.2031,-0.2046,-0.2025,-0.2027,-0.2033,-0.1973,-0.1972,-0.1827,-0.1839,-0.2005,-0.1957,-0.1957,-0.1957,-0.1957,0,-0.1555,-0.1598,-0.1658,-0.1737,-0.1752,-0.1801,-0.1872,-0.1922,-0.1986,-0.2013,-0.2052,-0.2059,-0.2098,-0.2081,-0.208,-0.2079,-0.205,-0.2028,-0.2025,-0.1893,-0.1835,-0.1912,-0.1959,-0.1959,-0.1958,-0.1958,-0.1958,0,-0.1505,-0.1592,-0.1642,-0.167,-0.1765,-0.181,-0.1861,-0.1935,-0.1973,-0.2039,-0.206,-0.2099,-0.2111,-0.2099,-0.2075,-0.2075,-0.2047,-0.2033,-0.1879,-0.1868,-0.1998,-0.1994,-0.2026,-0.2026,-0.2026,-0.2026,-0.2026,0,-0.1476,-0.1518,-0.1629,-0.1654,-0.1714,-0.1791,-0.1855,-0.191,-0.1983,-0.201,-0.2076,-0.2081,-0.2116,-0.2104,-0.2078,-0.1974,-0.2047,-0.1886,-0.1848,-0.2006,-0.2005,-0.1997,-0.1994,-0.2025,-0.2025,-0.2025,-0.2026,0,-0.1404,-0.148,-0.1543,-0.1657,-0.1693,-0.1735,-0.1844,-0.1879,-0.1962,-0.1997,-0.2017,-0.2073,-0.2037,-0.2044,-0.2011,-0.1952,-0.1884,-0.1829,-0.1993,-0.1965,-0.1707,-0.1707,-0.1644,-0.1639,-0.1634,-0.163,-0.1627,0,-0.1368,-0.1397,-0.1525,-0.1562,-0.1618,-0.1696,-0.1743,-0.1851,-0.1881,-0.1964,-0.1958,-0.1967,-0.1978,-0.1817,-0.1847,-0.1768,-0.1748,-0.1717,-0.1724,-0.1699,-0.1669,-0.1676,-0.1681,-0.162,-0.1619,-0.1618,-0.1617,0,-0.1294,-0.1355,-0.1405,-0.1483,-0.1547,-0.1605,-0.1678,-0.1689,-0.1791,-0.1885,-0.1832,-0.1796,-0.1746,-0.1703,-0.1653,-0.1606,-0.1743,-0.1669,-0.1679,-0.1685,-0.167,-0.1646,-0.1656,-0.1601,-0.1603,-0.1605,-0.1606,0,-0.1234,-0.1252,-0.1328,-0.1377,-0.1454,-0.1477,-0.1539,-0.156,-0.1599,-0.1695,-0.1667,-0.1671,-0.1719,-0.1616,-0.1574,-0.151,-0.1482,-0.1449,-0.147,-0.1487,-0.1457,-0.1415,-0.1231,0,0,0,0,0,-0.1163,-0.1167,-0.1212,-0.1258,-0.1329,-0.1362,-0.1472,-0.1537,-0.1639,-0.1553,-0.1604,-0.1542,-0.1461,-0.1472,-0.1364,-0.1499,-0.1495,-0.1372,-0.1472,-0.1515,-0.1533,-0.1512,0,0,0,0,0,0,-0.1114,-0.1151,-0.1166,-0.1137,-0.1138,-0.1196,-0.1257,-0.1336,-0.13,-0.1404,-0.1358,-0.1434,-0.137,-0.1464,-0.1317,-0.132,-0.1353,-0.1386,-0.1382,-0.1505,-0.1521,-0.1535,-0.152,0,0,0,0,0]},{"header":{"parameterUnit":"m.s-1","parameterCategory":2,"la1":30.2991,"la2":30.254,"lo1":-89.0895,"lo2":-89.0444,"dy":0.0017,"dx":0.0017,"nx":28,"ny":28,"refTime":"2024-08-17T09:00:00:Z","depth":"4","parameterNumber":3,"parameterNumberName":"V-component_of_CURRENTS"},"data":[0,0,0,0,0,0,0,0,0,0,0,0,0,0,0,0,0,0,0,0,0,0,0,0,0,0,0,0,0,0,0,0,0,0,0,0,0,0,0,0,0,0,0,0,0,0,0,0,0,0,0,0,0,0,0,0,0,0,-0.0318,-0.0318,0,-0.0322,-0.0322,-0.0322,-0.0318,-0.0317,-0.0317,-0.0317,-0.0307,-0.0307,-0.0307,0,0,0,0,0,0,0,0,0,0,0,0,0,-0.0296,-0.0297,-0.0318,-0.0318,-0.0318,-0.0322,-0.0322,-0.0322,-0.0318,-0.0317,-0.0317,-0.0317,-0.0307,-0.0307,-0.0307,0,0,0,0,0,0,0,0,0,0,0,0,0,-0.0305,-0.0297,-0.0318,-0.0315,-0.0314,-0.0322,-0.0322,-0.0322,-0.0318,-0.0317,-0.0317,-0.0316,-0.0307,-0.0307,-0.0307,-0.0317,0,0,-0.0307,-0.0307,0,0,0,0,0,0,0,0,-0.0305,-0.0306,-0.0315,-0.0315,-0.0315,-0.0317,-0.0311,-0.0319,-0.0318,-0.0318,-0.0317,-0.0316,-0.0308,-0.0308,-0.0313,-0.0317,-0.0316,-0.0307,-0.0307,-0.0307,-0.0307,0,0,0,0,0,0,0,-0.0304,-0.0306,-0.0321,-0.0315,-0.0315,-0.0309,-0.031,-0.0312,-0.0317,-0.0318,-0.0318,-0.0315,-0.0308,-0.0313,-0.0313,-0.0316,-0.0307,-0.0307,-0.0307,-0.0307,-0.0291,-0.029,0,0,0,0,0,0,-0.0301,-0.0306,-0.0321,-0.0321,-0.0306,-0.031,-0.0311,-0.0318,-0.0318,-0.0317,-0.0316,-0.0315,-0.0313,-0.0312,-0.0312,-0.0307,-0.0307,-0.0307,-0.0308,-0.0291,-0.029,-0.029,0,0,0,0,0,0,-0.0301,-0.0303,-0.0321,-0.0311,-0.0313,-0.0311,-0.0319,-0.0319,-0.0324,-0.0315,-0.0314,-0.0322,-0.0313,-0.0312,-0.0312,-0.0308,-0.0308,-0.0308,-0.0292,-0.0291,-0.029,-0.0309,0,0,0,0,0,0,-0.0301,-0.0303,-0.031,-0.0312,-0.0313,-0.0328,-0.0319,-0.0319,-0.0323,-0.0322,-0.032,-0.0319,-0.0312,-0.0312,-0.0312,-0.0308,-0.0308,-0.0292,-0.0291,-0.029,-0.0309,-0.0309,-0.0309,0,0,0,0,0,-0.03,-0.0312,-0.0311,-0.0312,-0.0322,-0.0328,-0.0329,-0.0327,-0.0324,-0.033,-0.0324,-0.0319,-0.0305,-0.0312,-0.0312,-0.0308,-0.0293,-0.0292,-0.0291,-0.0309,-0.0309,-0.0309,0,0,0,0,0,0,-0.031,-0.0312,-0.0311,-0.0324,-0.0326,-0.0327,-0.0333,-0.0331,-0.0333,-0.0333,-0.0323,-0.0321,-0.0319,-0.0309,-0.0317,-0.0297,-0.0294,-0.0293,-0.0308,-0.0308,-0.0308,-0.0284,-0.0308,0,0,0,0,0,-0.0315,-0.0325,-0.0322,-0.0336,-0.0336,-0.0336,-0.0339,-0.0338,-0.0338,-0.0339,-0.0332,-0.0322,-0.0315,-0.0309,-0.0305,-0.03,-0.0264,-0.0292,-0.0292,-0.0292,-0.0271,-0.0213,-0.0205,-0.0286,-0.0286,-0.0286,0,0,-0.0326,-0.0326,-0.0334,-0.0339,-0.0342,-0.0344,-0.0338,-0.0347,-0.0344,-0.0337,-0.0334,-0.033,-0.0315,-0.0309,-0.0305,-0.0299,-0.0254,-0.0291,-0.0291,-0.0269,-0.021,-0.0202,-0.0195,-0.0286,-0.0286,-0.0286,0,0,-0.0348,-0.0351,-0.0363,-0.0362,-0.0363,-0.0359,-0.0361,-0.0361,-0.0355,-0.0357,-0.0344,-0.0325,-0.0329,-0.03,-0.0291,-0.0285,-0.0261,-0.0294,-0.027,-0.0214,-0.0207,-0.02,-0.0159,-0.0148,-0.0287,-0.0287,-0.0287,0,-0.0361,-0.0375,-0.0369,-0.0373,-0.0373,-0.0365,-0.0374,-0.0365,-0.0362,-0.0351,-0.0357,-0.0325,-0.0316,-0.028,-0.0276,-0.0282,-0.0256,-0.0277,-0.0214,-0.0206,-0.0198,-0.0157,-0.0145,-0.0288,-0.0288,-0.0288,-0.0288,0,-0.0387,-0.0395,-0.0402,-0.0402,-0.04,-0.0411,-0.0392,-0.0386,-0.038,-0.0364,-0.0337,-0.0316,-0.029,-0.0285,-0.0282,-0.0224,-0.0226,-0.0228,-0.0215,-0.0191,-0.015,-0.0137,-0.0289,-0.0289,-0.0289,-0.0288,0,0,-0.0428,-0.0423,-0.0427,-0.043,-0.0418,-0.0423,-0.0407,-0.039,-0.0377,-0.0354,-0.0328,-0.0294,-0.0273,-0.0257,-0.0241,-0.0184,-0.0116,-0.0184,-0.0181,-0.0144,-0.0004,-0.0026,-0.0013,-0.0115,-0.0112,-0.011,-0.0002,0,-0.0454,-0.0473,-0.0457,-0.047,-0.0478,-0.0453,-0.044,-0.0415,-0.0393,-0.0362,-0.0307,-0.0285,-0.0265,-0.0259,-0.0194,-0.0145,-0.0079,-0.0145,-0.0029,-0.0025,-0.0049,0.0002,-0.0102,0.0008,0.0011,0.0013,0.0015,0,-0.0483,-0.0492,-0.0514,-0.0505,-0.0505,-0.0508,-0.0485,-0.0471,-0.041,-0.0389,-0.0332,-0.0296,-0.021,-0.0204,-0.0064,-0.0113,-0.0049,0.0,0.0005,0.0008,-0.0022,-0.0015,0.0039,0.0037,0.0035,0.0034,0.0032,0,-0.0521,-0.0528,-0.0551,-0.055,-0.0537,-0.0539,-0.0532,-0.0485,-0.0469,-0.0403,-0.0383,-0.028,-0.0237,-0.0131,-0.0029,-0.0046,0.0122,0.0108,0.016,0.0158,0.0151,0.0143,0.0232,0.0232,0.0232,0.0231,0.0231,0,-0.055,-0.0568,-0.0576,-0.0589,-0.0613,-0.0584,-0.0589,-0.0563,-0.0513,-0.0484,-0.0403,-0.0352,-0.0216,-0.0111,-0.0017,0.0112,0.0137,0.0189,0.0197,0.0137,0.0126,0.016,0.015,0.0235,0.0234,0.0234,0.0233,0,-0.0582,-0.0588,-0.0617,-0.0625,-0.0634,-0.0652,-0.0645,-0.0637,-0.0586,-0.0544,-0.0524,-0.0395,-0.0256,-0.0121,0.0054,0.0119,0.0244,0.0286,0.0213,0.021,0.024,0.0228,0.0361,0.0362,0.0362,0.0363,0.0363,0,-0.0596,-0.0617,-0.0658,-0.0686,-0.0697,-0.0718,-0.0729,-0.0687,-0.0666,-0.0565,-0.054,-0.04,-0.0305,-0.0062,0.0069,0.0258,0.0277,0.0335,0.0304,0.0266,0.026,0.0247,0.0235,0.0363,0.0363,0.0363,0.0364,0,-0.0622,-0.0646,-0.0671,-0.0737,-0.0769,-0.079,-0.0795,-0.0779,-0.071,-0.0669,-0.0528,-0.0391,-0.0232,-0.0053,0.0092,0.0224,0.0292,0.0339,0.0339,0.031,0.0269,0.026,0.0248,0.0365,0.0365,0.0364,0.0364,0,-0.0644,-0.0676,-0.0722,-0.0772,-0.0824,-0.0842,-0.0836,-0.0783,-0.0744,-0.0616,-0.0569,-0.0385,-0.0269,-0.0069,0.0065,0.019,0.0217,0.0243,0.0249,0.0249,0.0174,0.0102,0.0178,0,0,0,0,0,-0.0655,-0.0696,-0.0752,-0.0807,-0.086,-0.0881,-0.087,-0.0842,-0.0772,-0.0675,-0.0613,-0.0456,-0.0223,-0.0115,0.0009,0.0044,0.0211,0.0189,0.0237,0.0371,0.037,0.0298,0,0,0,0,0,0,-0.0666,-0.0724,-0.0753,-0.0825,-0.0866,-0.0909,-0.0898,-0.0849,-0.0772,-0.0683,-0.055,-0.0455,-0.0228,-0.0302,0.0,0.004,0.0082,0.0307,0.0309,0.0372,0.0371,0.037,0.0295,0,0,0,0,0]}]]